Back to catalog

FALCON 9 R/B

AliveHEO
NORAD 57210·ROCKET BODY·🇺🇸 United States

Launched Jul 1, 2023 from Cape Canaveral Space Force Station

Loading…

Next Passes (next 24 hours)

TLE

StaleSource: Space-Track

Epoch: Jul 1, 2023, 15:38 UTC

1 57210U 23092B   23182.65149054 -.00000361  00000-0  00000-0 0  9992
2 57210  28.2806 318.0655 8005778 123.3330 359.7928  1.26565515    00

Track FALCON 9 R/B in real time with AllMySat

Download on the App Store